Time,TemperatureF,DewpointF,PressureIn,WindDirection,WindDirectionDegrees,WindSpeedMPH,WindSpeedGustMPH,Humidity,HourlyPrecipIn,Conditions,Clouds,dailyrainin,SoftwareType,DateUTC
2013-08-11 00:12:00,55.0,-99.9,29.96,ENE,58,2.0,3.0,-999,-99.99,,,-99.99,,2013-08-11 08:12:00,
2013-08-11 00:37:00,55.0,-99.9,29.97,ESE,106,3.0,4.0,-999,-99.99,,,-99.99,,2013-08-11 08:37:00,
2013-08-11 00:49:00,55.0,-99.9,29.97,North,-999,-999.0,-999.0,-999,-99.99,,,-99.99,,2013-08-11 08:49:00,
2013-08-11 01:00:00,-999.0,-99.9,-100.00,SE,130,1.0,5.0,-999,-99.99,,,-99.99,,2013-08-11 09:00:00,
2013-08-11 01:10:00,-999.0,-99.9,-100.00,ESE,119,1.0,4.0,-999,-99.99,,,-99.99,,2013-08-11 09:10:00,
2013-08-11 01:17:00,-999.0,-99.9,-100.00,NNE,33,1.0,3.0,-999,-99.99,,,-99.99,,2013-08-11 09:17:00,
2013-08-11 01:37:00,54.0,-99.9,29.98,East,95,2.0,3.0,-999,-99.99,,,-99.99,,2013-08-11 09:37:00,
2013-08-11 01:45:00,-999.0,-99.9,-100.00,ENE,73,4.0,5.0,-999,-99.99,,,-99.99,,2013-08-11 09:45:00,
2013-08-11 02:02:00,-999.0,-99.9,-100.00,ENE,73,4.0,5.0,-999,-99.99,,,-99.99,,2013-08-11 10:02:00,
2013-08-11 02:07:00,55.0,-99.9,29.98,NE,49,2.0,5.0,-999,-99.99,,,-99.99,,2013-08-11 10:07:00,
2013-08-11 02:15:00,-999.0,-99.9,-100.00,NE,44,3.0,4.0,-999,-99.99,,,-99.99,,2013-08-11 10:15:00,
2013-08-11 02:29:00,-999.0,-99.9,-100.00,North,9,7.0,8.0,-999,-99.99,,,-99.99,,2013-08-11 10:29:00,
2013-08-11 02:38:00,-999.0,-99.9,-100.00,NNE,31,4.0,6.0,-999,-99.99,,,-99.99,,2013-08-11 10:38:00,
2013-08-11 02:48:00,-999.0,-99.9,-100.00,NNE,26,3.0,6.0,-999,-99.99,,,-99.99,,2013-08-11 10:48:00,
2013-08-11 02:59:00,-999.0,-99.9,-100.00,NNE,28,4.0,7.0,-999,-99.99,,,-99.99,,2013-08-11 10:59:00,
2013-08-11 03:07:00,53.0,-99.9,29.98,NE,40,4.0,6.0,-999,-99.99,,,-99.99,,2013-08-11 11:07:00,
2013-08-11 03:24:00,53.0,-99.9,29.98,North,-999,-999.0,-999.0,-999,-99.99,,,-99.99,,2013-08-11 11:24:00,
2013-08-11 03:40:00,52.0,-99.9,29.98,NE,38,6.0,7.0,-999,-99.99,,,-99.99,,2013-08-11 11:40:00,
2013-08-11 03:50:00,52.0,-99.9,29.98,NE,38,6.0,7.0,-999,-99.99,,,-99.99,,2013-08-11 11:50:00,
2013-08-11 04:01:00,-999.0,-99.9,-100.00,NE,46,6.0,10.0,-999,-99.99,,,-99.99,,2013-08-11 12:01:00,
2013-08-11 04:08:00,-999.0,-99.9,-100.00,NE,43,5.0,7.0,-999,-99.99,,,-99.99,,2013-08-11 12:08:00,
2013-08-11 04:16:00,53.0,-99.9,29.98,North,-999,-999.0,-999.0,-999,-99.99,,,-99.99,,2013-08-11 12:16:00,
2013-08-11 04:47:00,52.0,-99.9,29.98,North,-999,-999.0,-999.0,-999,-99.99,,,-99.99,,2013-08-11 12:47:00,
2013-08-11 05:07:00,52.0,-99.9,29.99,North,-999,-999.0,-999.0,-999,-99.99,,,-99.99,,2013-08-11 13:07:00,
2013-08-11 05:27:00,-999.0,-99.9,-100.00,ENE,67,4.0,6.0,-999,-99.99,,,-99.99,,2013-08-11 13:27:00,
2013-08-11 05:42:00,-999.0,-99.9,-100.00,East,81,3.0,8.0,-999,-99.99,,,-99.99,,2013-08-11 13:42:00,
2013-08-11 05:49:00,-999.0,-99.9,-100.00,NE,52,3.0,4.0,-999,-99.99,,,-99.99,,2013-08-11 13:49:00,
2013-08-11 05:59:00,-999.0,-99.9,-100.00,NE,52,3.0,4.0,-999,-99.99,,,-99.99,,2013-08-11 13:59:00,
2013-08-11 06:06:00,-999.0,-99.9,-100.00,ENE,58,2.0,3.0,-999,-99.99,,,-99.99,,2013-08-11 14:06:00,
2013-08-11 06:38:00,-999.0,-99.9,-100.00,NE,39,1.0,4.0,-999,-99.99,,,-99.99,,2013-08-11 14:38:00,
2013-08-11 06:50:00,-999.0,-99.9,-100.00,NE,39,1.0,4.0,-999,-99.99,,,-99.99,,2013-08-11 14:50:00,
2013-08-11 06:58:00,-999.0,-99.9,-100.00,NE,39,1.0,4.0,-999,-99.99,,,-99.99,,2013-08-11 14:58:00,
2013-08-11 07:24:00,52.0,-99.9,29.98,NNE,27,3.0,6.0,-999,-99.99,,,-99.99,,2013-08-11 15:24:00,
2013-08-11 07:42:00,-999.0,-99.9,-100.00,NE,42,4.0,6.0,-999,-99.99,,,-99.99,,2013-08-11 15:42:00,
2013-08-11 07:49:00,52.0,-99.9,29.99,North,-999,-999.0,-999.0,-999,-99.99,,,-99.99,,2013-08-11 15:49:00,
2013-08-11 08:01:00,52.0,-99.9,29.98,North,-999,-999.0,-999.0,-999,-99.99,,,-99.99,,2013-08-11 16:01:00,
2013-08-11 08:15:00,-999.0,-99.9,-100.00,NE,51,3.0,5.0,-999,-99.99,,,-99.99,,2013-08-11 16:15:00,
2013-08-11 08:29:00,-999.0,-99.9,-100.00,NE,55,4.0,5.0,-999,-99.99,,,-99.99,,2013-08-11 16:29:00,
2013-08-11 08:47:00,52.0,-99.9,29.98,NE,46,4.0,5.0,-999,-99.99,,,-99.99,,2013-08-11 16:47:00,
2013-08-11 09:00:00,-999.0,-99.9,-100.00,NE,56,4.0,5.0,-999,-99.99,,,-99.99,,2013-08-11 17:00:00,
2013-08-11 09:09:00,-999.0,-99.9,-100.00,NE,43,5.0,6.0,-999,-99.99,,,-99.99,,2013-08-11 17:09:00,
2013-08-11 09:15:00,-999.0,-99.9,-100.00,NE,43,5.0,6.0,-999,-99.99,,,-99.99,,2013-08-11 17:15:00,
2013-08-11 09:27:00,-999.0,-99.9,-100.00,NE,52,2.0,4.0,-999,-99.99,,,-99.99,,2013-08-11 17:27:00,
2013-08-11 09:38:00,52.0,-99.9,29.98,ENE,66,4.0,5.0,-999,-99.99,,,-99.99,,2013-08-11 17:38:00,
2013-08-11 10:07:00,52.0,-99.9,29.98,East,86,3.0,4.0,-999,-99.99,,,-99.99,,2013-08-11 18:07:00,
2013-08-11 10:12:00,53.0,-99.9,29.98,ENE,69,4.0,6.0,-999,-99.99,,,-99.99,,2013-08-11 18:12:00,
2013-08-11 10:19:00,52.0,-99.9,29.98,East,80,4.0,6.0,-999,-99.99,,,-99.99,,2013-08-11 18:19:00,
2013-08-11 10:41:00,53.0,-99.9,29.99,NE,46,5.0,7.0,-999,-99.99,,,-99.99,,2013-08-11 18:41:00,
2013-08-11 10:58:00,53.0,-99.9,29.98,ENE,69,4.0,6.0,-999,-99.99,,,-99.99,,2013-08-11 18:58:00,
2013-08-11 11:11:00,53.0,-99.9,29.98,ENE,69,4.0,6.0,-999,-99.99,,,-99.99,,2013-08-11 19:11:00,
2013-08-11 11:52:00,54.0,-99.9,29.98,North,-999,-999.0,-999.0,-999,-99.99,,,-99.99,,2013-08-11 19:52:00,
2013-08-11 12:01:00,54.0,-99.9,29.98,North,-999,-999.0,-999.0,-999,-99.99,,,-99.99,,2013-08-11 20:01:00,
2013-08-11 12:08:00,54.0,-99.9,29.98,North,-999,-999.0,-999.0,-999,-99.99,,,-99.99,,2013-08-11 20:08:00,
2013-08-11 12:40:00,54.0,-99.9,29.98,ENE,72,2.0,4.0,-999,-99.99,,,-99.99,,2013-08-11 20:40:00,
2013-08-11 12:50:00,54.0,-99.9,29.98,ENE,71,1.0,4.0,-999,-99.99,,,-99.99,,2013-08-11 20:50:00,
2013-08-11 13:08:00,53.0,-99.9,29.98,ENE,70,4.0,5.0,-999,-99.99,,,-99.99,,2013-08-11 21:08:00,
2013-08-11 13:14:00,53.0,-99.9,29.98,ENE,70,4.0,5.0,-999,-99.99,,,-99.99,,2013-08-11 21:14:00,
2013-08-11 13:36:00,-999.0,-99.9,-100.00,SE,138,1.0,3.0,-999,-99.99,,,-99.99,,2013-08-11 21:36:00,
2013-08-11 13:37:00,54.0,-99.9,29.98,East,81,3.0,6.0,-999,-99.99,,,-99.99,,2013-08-11 21:37:00,
2013-08-11 13:50:00,54.0,-99.9,29.98,ENE,71,2.0,4.0,-999,-99.99,,,-99.99,,2013-08-11 21:50:00,
2013-08-11 14:05:00,54.0,-99.9,29.98,ENE,70,1.0,3.0,-999,-99.99,,,-99.99,,2013-08-11 22:05:00,
2013-08-11 14:17:00,-999.0,-99.9,-100.00,SE,138,1.0,3.0,-999,-99.99,,,-99.99,,2013-08-11 22:17:00,
2013-08-11 14:24:00,53.0,-99.9,29.97,ENE,62,6.0,11.0,-999,-99.99,,,-99.99,,2013-08-11 22:24:00,
2013-08-11 14:27:00,-999.0,-99.9,-100.00,SE,138,1.0,3.0,-999,-99.99,,,-99.99,,2013-08-11 22:27:00,
2013-08-11 14:49:00,54.0,-99.9,29.97,ENE,75,6.0,10.0,-999,-99.99,,,-99.99,,2013-08-11 22:49:00,
2013-08-11 15:07:00,53.0,-99.9,29.97,ENE,62,6.0,11.0,-999,-99.99,,,-99.99,,2013-08-11 23:07:00,
2013-08-11 15:18:00,53.0,-99.9,29.97,ENE,62,6.0,11.0,-999,-99.99,,,-99.99,,2013-08-11 23:18:00,
2013-08-11 15:50:00,55.0,-99.9,29.97,ENE,59,4.0,6.0,-999,-99.99,,,-99.99,,2013-08-11 23:50:00,
2013-08-11 15:59:00,55.0,-99.9,29.98,ESE,109,2.0,4.0,-999,-99.99,,,-99.99,,2013-08-11 23:59:00,
2013-08-11 16:09:00,-999.0,-99.9,-100.00,WSW,244,1.0,5.0,-999,-99.99,,,-99.99,,2013-08-12 00:09:00,
2013-08-11 16:26:00,55.0,-99.9,29.97,South,191,2.0,5.0,-999,-99.99,,,-99.99,,2013-08-12 00:26:00,
2013-08-11 16:38:00,55.0,-99.9,29.97,NNW,332,3.0,7.0,-999,-99.99,,,-99.99,,2013-08-12 00:38:00,
2013-08-11 16:53:00,55.0,-99.9,29.97,North,-999,-999.0,-999.0,-999,-99.99,,,-99.99,,2013-08-12 00:53:00,
2013-08-11 16:59:00,55.0,-99.9,29.97,North,-999,-999.0,-999.0,-999,-99.99,,,-99.99,,2013-08-12 00:59:00,
2013-08-11 17:08:00,55.0,-99.9,29.97,NE,45,5.0,13.0,-999,-99.99,,,-99.99,,2013-08-12 01:08:00,
2013-08-11 17:26:00,56.0,-99.9,29.97,North,-999,-999.0,-999.0,-999,-99.99,,,-99.99,,2013-08-12 01:26:00,
2013-08-11 17:40:00,56.0,-99.9,29.97,NE,44,6.0,15.0,-999,-99.99,,,-99.99,,2013-08-12 01:40:00,
2013-08-11 17:48:00,56.0,-99.9,29.97,NNW,341,4.0,18.0,-999,-99.99,,,-99.99,,2013-08-12 01:48:00,
2013-08-11 17:58:00,56.0,-99.9,29.97,NNW,341,4.0,18.0,-999,-99.99,,,-99.99,,2013-08-12 01:58:00,
2013-08-11 18:09:00,56.0,-99.9,29.96,WNW,299,11.0,16.0,-999,-99.99,,,-99.99,,2013-08-12 02:09:00,
2013-08-11 18:25:00,56.0,-99.9,29.96,WNW,301,4.0,14.0,-999,-99.99,,,-99.99,,2013-08-12 02:25:00,
2013-08-11 18:37:00,56.0,-99.9,29.96,North,-999,-999.0,-999.0,-999,-99.99,,,-99.99,,2013-08-12 02:37:00,
2013-08-11 19:09:00,57.0,-99.9,29.95,SW,224,3.0,8.0,-999,-99.99,,,-99.99,,2013-08-12 03:09:00,
2013-08-11 19:16:00,57.0,-99.9,29.95,SW,224,3.0,8.0,-999,-99.99,,,-99.99,,2013-08-12 03:16:00,
2013-08-11 19:25:00,57.0,-99.9,29.95,SW,224,3.0,8.0,-999,-99.99,,,-99.99,,2013-08-12 03:25:00,
2013-08-11 19:39:00,56.0,-99.9,29.95,WNW,294,3.0,11.0,-999,-99.99,,,-99.99,,2013-08-12 03:39:00,
2013-08-11 19:48:00,56.0,-99.9,29.95,North,350,4.0,8.0,-999,-99.99,,,-99.99,,2013-08-12 03:48:00,
2013-08-11 20:01:00,56.0,-99.9,29.95,NW,316,6.0,15.0,-999,-99.99,,,-99.99,,2013-08-12 04:01:00,
2013-08-11 20:02:00,56.0,-99.9,29.95,WNW,293,9.0,19.0,-999,-99.99,,,-99.99,,2013-08-12 04:02:00,
2013-08-11 20:12:00,56.0,-99.9,29.94,NNE,23,4.0,12.0,-999,-99.99,,,-99.99,,2013-08-12 04:12:00,
2013-08-11 20:33:00,56.0,-99.9,29.94,NNW,328,12.0,25.0,-999,-99.99,,,-99.99,,2013-08-12 04:33:00,
2013-08-11 20:43:00,56.0,-99.9,29.94,NNW,328,12.0,25.0,-999,-99.99,,,-99.99,,2013-08-12 04:43:00,
2013-08-11 21:02:00,56.0,-99.9,29.94,NNE,29,7.0,15.0,-999,-99.99,,,-99.99,,2013-08-12 05:02:00,
2013-08-11 21:11:00,56.0,-99.9,29.94,NNE,29,7.0,15.0,-999,-99.99,,,-99.99,,2013-08-12 05:11:00,
2013-08-11 21:32:00,56.0,-99.9,29.94,North,8,3.0,11.0,-999,-99.99,,,-99.99,,2013-08-12 05:32:00,
2013-08-11 21:43:00,56.0,-99.9,29.94,North,8,3.0,11.0,-999,-99.99,,,-99.99,,2013-08-12 05:43:00,
2013-08-11 22:02:00,56.0,-99.9,29.94,NNW,345,5.0,14.0,-999,-99.99,,,-99.99,,2013-08-12 06:02:00,
2013-08-11 22:32:00,56.0,-99.9,29.94,West,271,13.0,20.0,-999,-99.99,,,-99.99,,2013-08-12 06:32:00,
2013-08-11 22:42:00,56.0,-99.9,29.95,North,-999,-999.0,-999.0,-999,-99.99,,,-99.99,,2013-08-12 06:42:00,
2013-08-11 22:52:00,56.0,-99.9,29.95,NW,306,2.0,19.0,-999,-99.99,,,-99.99,,2013-08-12 06:52:00,
2013-08-11 23:01:00,56.0,-99.9,29.95,SSW,194,4.0,7.0,-999,-99.99,,,-99.99,,2013-08-12 07:01:00,
2013-08-11 23:12:00,56.0,-99.9,29.95,SSE,166,5.0,10.0,-999,-99.99,,,-99.99,,2013-08-12 07:12:00,
2013-08-11 23:22:00,56.0,-99.9,29.95,North,-999,-999.0,-999.0,-999,-99.99,,,-99.99,,2013-08-12 07:22:00,
2013-08-11 23:33:00,56.0,-99.9,29.95,North,-999,-999.0,-999.0,-999,-99.99,,,-99.99,,2013-08-12 07:33:00,
2013-08-11 23:43:00,56.0,-99.9,29.95,NNW,339,5.0,13.0,-999,-99.99,,,-99.99,,2013-08-12 07:43:00,